If you wish to contribute or participate in the discussions about articles you are invited to join SKYbrary as a registered user

 Actions

Sihanoukville International Airport

From SKYbrary Wiki

VDSV
Airport
ICAO: VDSV – IATA: KOS
Summary
Name Sihanoukville International Airport
Region Asia and Pacific
Territory Cambodia KH.gif
Location Kong King, Preah Sihanouk
Serving Sihanoukville
Elevation 12.192 m
40 ft
40 ft12.192 m
Coordinates 10° 34' 40.12" N, 103° 38' 12.26" E
Runways
Designator Length Width Surface ROPS
3/21 1296 m4,251.969 ft
34 m111.549 ft
ASP /


METAR
Observation VDSV 151330Z 04002KT 9999 FEW015 26/23 Q1012
Station Sihanoukville International Airport
Date/Time 15 December 2019 13:30:00
Wind direction 40°
Wind speed 02 kts
Lowest cloud amount few clouds
Temperature 26°C
Dew point 23°C
Humidity 83%
QNH 1012 hPa
Weather condition n/a

Sihanouk International Airport, located 18 km east of Preah Sihanouk Province, is Cambodia's third international airport. The airport is also known as Kang Keng Airport. The IATA code KOS dates from Sihanoukville's former name Kompong Som.

Climatology

Tropical Savanna climate (Köppen climate classification Aw)

Maps

Terrain

Loading map...

Airport Layout

Loading map...


Accidents & Serious Incidents at or in vicinity of VDSV

None on SKYbrary